Regional Weather Roundup
Issued by NWS Goodland, KS

Home | Current Version | Previous Version | Graphics & Text | Print | Product List | Glossary On
Versions: 1 2 3 4 5 6 7 8 9 10 11 12 13 14 15 16 17 18 19 20 21 22 23 24 25 26 27 28 29 30 31 32 33 34 35 36 37 38 39 40 41 42 43 44 45 46 47 48 49 50
000
ASUS43 KGLD 022308
RWRGLD

GOODLAND FORECAST AREA HOURLY WEATHER ROUNDUP
NATIONAL WEATHER SERVICE GOODLAND KS
500 PM MDT WED SEP 02 2015

...OFFICIAL OBSERVATIONS...

CITY           SKY/WX    TMP DP  RH WIND       PRES   REMARKS
GOODLAND KS    SUNNY     95  45  17 SW6       29.87F
HILL CITY KS   SUNNY    101  55  21 S8        29.79F
IMPERIAL NEB   MOSUNNY   97  48  18 SW8       29.85F
MCCOOK NEB     SUNNY     99  54  22 SE9       29.82F
AKRON CO       SUNNY     90  38  16 S7        29.96F
BURLINGTON CO  SUNNY     93  42  17 VRB5      29.93F
LIMON CO       SUNNY     88  38  17 VRB5      30.03F
$$

...UNOFFICIAL OBSERVATIONS...

CITY           SKY/WX    TMP DP  RH WIND       PRES   REMARKS
COLBY KS       SUNNY     97  57  26 E9        29.86S
GOVE KS          N/A     98  32  10 MISG        N/A
LENORA KS        N/A     98  32  10 MISG        N/A
NORTON KS      SUNNY     95  50  21 SE8       29.80S
TRENTON NEB      N/A     98  32  10 SE10        N/A
KIT CARSON CO    N/A     96  48  19 MISG        N/A
YUMA CO          N/A     95  46  18 CALM        N/A
$$


USA.gov is the U.S. government's official web portal to all federal, state and local government web resources and services.